Starlink 11562

operational
NORAD ID: 62918 Int'l Des: 2025-027 Owner: SPXS Country: US Constellation: starlink
LEOCIRCULAR

关于 Starlink 11562

正在加载描述...

实时位置

正在加载3D地球...

即将过境

高度历史

Altitude vs Time

uPlot chart will show altitude changes over time

两行轨道根数

1 62918U 25027M 25303.72203328 .00106484 00000-0 82193-3 0 9991
2 62918 42.9987 50.8797 0002641 246.2537 113.8054 15.70861684 42751
Epoch: Oct 30, 2025 • Age: 23 hours

当前状态

高度 359.2 km
速度 7.69 km/s
星下点 -17.62°S, 103.56°E
发射日期 Feb 8, 2025
运行时间 0.7 years
类型 internet

技术详情

分类 Payload
质量 960.00 kg
干质量 910.00 kg
总质量 960.00 kg
长度 0.30 m
直径 4.10 m
跨度 29.00 m
形状 Box + pan
制造商 SPXS
平台类型 Starlink V2MD
阶段状态 In Orbit
所有者/国家 SPXS/US

大型星座

Loading constellations...